カタログに戻る

DELTA 1 DEB

運用中PO
NORAD 21972·DEBRIS·🇺🇸 United States

打ち上げ Jun 12, 1975 から Vandenberg Space Force Base

Loading…

次のパス (今後24時間)

TLE

最新Source: Space-Track

元期: Sep 14, 2026, 00:22 UTC

1 21972U 75052JW  26257.01592013  .00000110  00000-0  42791-3 0  9991
2 21972  99.5927  91.2507 0334603 253.5413 264.3668 12.92146692625875

AllMySatでDELTA 1 DEBをリアルタイム追跡

Download on the App Store